When you browse on this site, cookies collect data to enhance your experience and personalize the content and advertising you see.
Visit our Privacy Policy to learn more. By continuing to use the site, you agree to this use of cookies and data.
  • En España
  • Lista de países
  • Para 7 días
  • Temperatura del agua
  • Mapa Satelital
  • El tiempo en el mapa
  • Informadores
  • user-avatar
    Iniciar sesión

    Tiempo cada hora Atoyatempan

    Hoy, 22 Abril, Lunes

    Tiempo Temperatura Precipitaciones Viento Presión Humedad
    00:00 +20°C° 0 mm 2 mps 609 mmHg 42%
    01:00 +20°C° 0 mm 1 mps 609 mmHg 44%
    02:00 +20°C° 0 mm 1 mps 608 mmHg 45%
    03:00 +19°C° 0 mm 1 mps 608 mmHg 47%
    04:00 +16°C° 0 mm 0 mps 608 mmHg 50%
    05:00 +16°C° 0 mm 0 mps 608 mmHg 50%
    06:00 +20°C° 0 mm 1 mps 608 mmHg 47%
    07:00 +21°C° 0 mm 1 mps 609 mmHg 43%
    08:00 +23°C° 0 mm 1 mps 610 mmHg 40%
    09:00 +25°C° 0 mm 2 mps 610 mmHg 35%
    10:00 +27°C° 0 mm 3 mps 611 mmHg 31%
    11:00 +29°C° 0 mm 3 mps 611 mmHg 27%
    12:00 +30°C° 0 mm 4 mps 611 mmHg 24%
    13:00 +32°C° 0 mm 4 mps 611 mmHg 22%
    14:00 +33°C° 0 mm 5 mps 610 mmHg 20%
    15:00 +32°C° 0 mm 5 mps 610 mmHg 20%
    16:00 +32°C° 0 mm 5 mps 610 mmHg 21%
    17:00 +30°C° 0 mm 5 mps 610 mmHg 21%
    18:00 +28°C° 0 mm 4 mps 610 mmHg 26%
    19:00 +27°C° 0 mm 4 mps 610 mmHg 31%
    20:00 +25°C° 0 mm 3 mps 610 mmHg 36%
    21:00 +24°C° 0 mm 2 mps 609 mmHg 40%
    22:00 +23°C° 0 mm 2 mps 609 mmHg 44%
    23:00 +22°C° 0 mm 1 mps 609 mmHg 48%

    Mañana, 23 Abril, Martes

    Tiempo Temperatura Precipitaciones Viento Presión Humedad
    00:00 +21°C° 0 mm 1 mps 608 mmHg 50%
    01:00 +20°C° 0 mm 1 mps 608 mmHg 51%
    02:00 +20°C° 0 mm 1 mps 607 mmHg 53%
    03:00 +19°C° 0 mm 1 mps 607 mmHg 53%
    04:00 +18°C° 0 mm 1 mps 607 mmHg 53%
    05:00 +18°C° 0 mm 1 mps 606 mmHg 53%
    06:00 +20°C° 0 mm 1 mps 607 mmHg 49%
    07:00 +22°C° 0 mm 1 mps 608 mmHg 45%
    08:00 +23°C° 0 mm 2 mps 609 mmHg 41%
    09:00 +25°C° 0 mm 2 mps 609 mmHg 38%
    10:00 +27°C° 0 mm 3 mps 610 mmHg 34%
    11:00 +28°C° 0 mm 4 mps 610 mmHg 30%
    12:00 +29°C° 0 mm 4 mps 610 mmHg 28%
    13:00 +30°C° 0 mm 5 mps 610 mmHg 26%
    14:00 +32°C° 0 mm 6 mps 609 mmHg 24%
    15:00 +32°C° 0 mm 5 mps 609 mmHg 24%
    16:00 +30°C° 0 mm 5 mps 609 mmHg 24%
    17:00 +29°C° 0 mm 5 mps 608 mmHg 24%
    18:00 +28°C° 0 mm 4 mps 609 mmHg 28%
    19:00 +26°C° 0 mm 3 mps 609 mmHg 32%
    20:00 +25°C° 0 mm 1 mps 609 mmHg 37%
    21:00 +24°C° 0 mm 1 mps 609 mmHg 41%
    22:00 +23°C° 0 mm 2 mps 608 mmHg 45%
    23:00 +21°C° 0 mm 2 mps 608 mmHg 50%

    Pasado mañana, 24 Abril, Miércoles

    Tiempo Temperatura Precipitaciones Viento Presión Humedad
    00:00 +22°C° 0 mm 1 mps 608 mmHg 52%
    01:00 +21°C° 0 mm 1 mps 607 mmHg 54%
    02:00 +20°C° 0 mm 1 mps 606 mmHg 56%
    03:00 +19°C° 0 mm 1 mps 606 mmHg 59%
    04:00 +19°C° 0 mm 1 mps 606 mmHg 61%
    05:00 +16°C° 0 mm 0 mps 606 mmHg 63%
    06:00 +20°C° 0 mm 1 mps 606 mmHg 58%
    07:00 +21°C° 0 mm 2 mps 607 mmHg 52%
    08:00 +24°C° 0 mm 2 mps 608 mmHg 46%
    09:00 +25°C° 0 mm 3 mps 609 mmHg 40%
    10:00 +27°C° 0 mm 4 mps 609 mmHg 35%
    11:00 +29°C° 0 mm 5 mps 610 mmHg 30%
    12:00 +30°C° 0 mm 6 mps 609 mmHg 28%
    13:00 +30°C° 0 mm 6 mps 608 mmHg 25%
    14:00 +32°C° 0 mm 7 mps 608 mmHg 23%
    15:00 +30°C° 0 mm 7 mps 608 mmHg 23%
    16:00 +30°C° 0 mm 7 mps 607 mmHg 23%
    17:00 +29°C° 0 mm 7 mps 607 mmHg 23%
    18:00 +28°C° 0 mm 6 mps 607 mmHg 25%
    19:00 +26°C° 0 mm 5 mps 607 mmHg 28%
    20:00 +25°C° 0 mm 3 mps 607 mmHg 30%
    21:00 +24°C° 0 mm 3 mps 607 mmHg 33%
    22:00 +22°C° 0 mm 3 mps 607 mmHg 36%
    23:00 +21°C° 0 mm 2 mps 607 mmHg 39%

    25 Abril, Jueves

    Tiempo Temperatura Precipitaciones Viento Presión Humedad
    00:00 +20°C° 0 mm 2 mps 606 mmHg 44%
    01:00 +20°C° 0 mm 1 mps 606 mmHg 48%
    02:00 +20°C° 0 mm 1 mps 605 mmHg 53%
    03:00 +19°C° 0 mm 1 mps 605 mmHg 57%
    04:00 +16°C° 0 mm 0 mps 605 mmHg 60%
    05:00 +15°C° 0 mm 0 mps 605 mmHg 64%
    06:00 +19°C° 0 mm 1 mps 606 mmHg 55%
    07:00 +21°C° 0 mm 1 mps 608 mmHg 46%
    08:00 +23°C° 0 mm 1 mps 609 mmHg 37%
    09:00 +25°C° 0 mm 2 mps 609 mmHg 32%
    10:00 +27°C° 0 mm 3 mps 610 mmHg 27%
    11:00 +29°C° 0 mm 4 mps 610 mmHg 21%
    12:00 +30°C° 0 mm 4 mps 610 mmHg 19%
    13:00 +30°C° 0 mm 5 mps 610 mmHg 17%
    14:00 +32°C° 0 mm 6 mps 610 mmHg 15%
    15:00 +32°C° 0 mm 6 mps 609 mmHg 15%
    16:00 +30°C° 0 mm 6 mps 609 mmHg 15%
    17:00 +29°C° 0 mm 6 mps 609 mmHg 15%
    18:00 +27°C° 0 mm 4 mps 610 mmHg 18%
    19:00 +26°C° 0 mm 3 mps 610 mmHg 22%
    20:00 +24°C° 0 mm 1 mps 610 mmHg 25%
    21:00 +23°C° 0 mm 2 mps 610 mmHg 34%
    22:00 +21°C° 0 mm 2 mps 610 mmHg 43%
    23:00 +21°C° 0 mm 2 mps 610 mmHg 52%

    26 Abril, Viernes

    Tiempo Temperatura Precipitaciones Viento Presión Humedad
    00:00 +20°C° 0 mm 2 mps 609 mmHg 58%
    01:00 +19°C° 0 mm 2 mps 609 mmHg 65%
    02:00 +19°C° 0 mm 2 mps 608 mmHg 72%
    03:00 +18°C° 0 mm 2 mps 608 mmHg 74%
    04:00 +18°C° 0 mm 2 mps 608 mmHg 76%
    05:00 +17°C° 0 mm 2 mps 609 mmHg 77%
    06:00 +19°C° 0 mm 2 mps 610 mmHg 66%
    07:00 +21°C° 0 mm 3 mps 611 mmHg 55%
    08:00 +24°C° 0 mm 3 mps 612 mmHg 44%
    09:00 +25°C° 0 mm 3 mps 612 mmHg 37%
    10:00 +27°C° 0 mm 3 mps 612 mmHg 31%
    11:00 +29°C° 0 mm 3 mps 612 mmHg 25%
    12:00 +29°C° 0 mm 3 mps 612 mmHg 24%
    13:00 +30°C° 0 mm 4 mps 612 mmHg 22%
    14:00 +30°C° 0 mm 4 mps 611 mmHg 21%
    15:00 +29°C° 0 mm 5 mps 611 mmHg 25%
    16:00 +28°C° 0 mm 5 mps 611 mmHg 28%
    17:00 +27°C° 0 mm 6 mps 610 mmHg 32%
    18:00 +25°C° 0 mm 5 mps 610 mmHg 37%
    19:00 +23°C° 0 mm 5 mps 611 mmHg 41%
    20:00 +22°C° 0 mm 4 mps 611 mmHg 46%
    21:00 +21°C° 0 mm 3 mps 611 mmHg 49%
    22:00 +20°C° 0 mm 3 mps 610 mmHg 52%
    23:00 +19°C° 0 mm 2 mps 610 mmHg 54%

    27 Abril, Sábado

    Tiempo Temperatura Precipitaciones Viento Presión Humedad
    00:00 +19°C° 0 mm 2 mps 609 mmHg 56%
    01:00 +18°C° 0 mm 2 mps 609 mmHg 58%
    02:00 +18°C° 0 mm 2 mps 608 mmHg 59%
    03:00 +18°C° 0 mm 2 mps 608 mmHg 61%
    04:00 +18°C° 0 mm 1 mps 608 mmHg 62%
    05:00 +18°C° 0 mm 1 mps 608 mmHg 64%
    06:00 +20°C° 0 mm 1 mps 609 mmHg 55%
    07:00 +22°C° 0 mm 1 mps 610 mmHg 46%
    08:00 +24°C° 0 mm 1 mps 611 mmHg 38%
    09:00 +26°C° 0 mm 1 mps 611 mmHg 31%
    10:00 +28°C° 0 mm 1 mps 611 mmHg 25%
    11:00 +30°C° 0 mm 1 mps 612 mmHg 18%
    12:00 +31°C° 0 mm 2 mps 611 mmHg 16%
    13:00 +32°C° 0 mm 2 mps 611 mmHg 14%
    14:00 +34°C° 0 mm 2 mps 611 mmHg 12%
    15:00 +32°C° 0 mm 2 mps 610 mmHg 14%
    16:00 +31°C° 0 mm 3 mps 610 mmHg 17%
    17:00 +30°C° 0 mm 3 mps 610 mmHg 19%
    18:00 +28°C° 0 mm 4 mps 610 mmHg 25%
    19:00 +27°C° 0 mm 4 mps 610 mmHg 31%
    20:00 +25°C° 0 mm 4 mps 610 mmHg 36%
    21:00 +24°C° 0 mm 3 mps 610 mmHg 40%
    22:00 +23°C° 0 mm 2 mps 609 mmHg 43%
    23:00 +22°C° 0 mm 1 mps 609 mmHg 46%
    Mostrar más